Flag for U.S.A. Weather past 2 weeks in Midland, Texas, U.S.A.

Now
69 °F

Clear.


Feels Like: 69 °F
Forecast: 60 / 88 °F
Wind: 14 mph from Southwest

Location: Midland - Midland Airpark

Current Time: Apr 2, 2015 at 1:58:12 AM

Latest Report: Apr 2, 2015 at 1:15 AM


Visibility: 10 mi

Pressure: 29.88 "Hg

Humidity: 70%

Dew point: 59 °F

Location of MidlandLocation

Historic Weather in Midland — Graph

°F

Midland temperature yesterday

Maximum temperature yesterday: 85 °F (at 4:55 PM)
Minimum temperature yesterday: 62 °F (at 7:15 AM)
Average temperature yesterday: 74 °F

Past Weeks' High & Low Weather Summary

 TemperatureHumidityPressure
High89 °F (Mar 29, 1:55 PM)100% (Mar 20, 1:35 AM)30.34 "Hg (Mar 20, 1:35 AM)
Low42 °F (Mar 26, 7:15 AM)11% (Mar 25, 3:35 PM)29.80 "Hg (Apr 1, 5:15 PM)
Average65 °F53%30.05 "Hg
* Reported Mar 18 12:15 AM — Apr 2 12:55 AM, Midland, Weather by CustomWeather, © 2015

Note: Actual official high and low records may vary slightly from our data, if they occured in-between our weather recording intervals... More about our weather records

Advertising

Midland weather history for previous 24 hours

 ConditionsComfort  
Time TempWeatherWind HumidityBarometerVisibility
12:55 AM
Thu, Apr 2
69 °FClear.13 mph69%29.88 "Hg10 mi
12:35 AM70 °FClear.13 mph66%29.88 "Hg10 mi
12:15 AM71 °FClear.16 mph64%29.88 "Hg10 mi
11:55 PM
Wed, Apr 1
72 °FClear.16 mph63%29.88 "Hg10 mi
11:35 PM72 °FClear.15 mph60%29.88 "Hg10 mi
11:15 PM73 °FClear.16 mph58%29.87 "Hg10 mi
10:55 PM73 °FClear.16 mph52%29.86 "Hg10 mi
10:15 PM74 °FClear.15 mph37%29.85 "Hg10 mi
9:55 PM74 °FClear.10 mph32%29.83 "Hg10 mi
9:35 PM75 °FClear.7 mph30%29.82 "Hg10 mi
9:15 PM76 °FClear.8 mph29%29.82 "Hg10 mi
8:55 PM77 °FSunny.8 mph28%29.81 "Hg10 mi
8:35 PM79 °FSunny.8 mph25%29.81 "Hg10 mi
8:15 PM80 °FSunny.8 mph23%29.80 "Hg10 mi
7:55 PM82 °FSunny.10 mph21%29.80 "Hg10 mi
7:15 PM84 °FSunny.13 mph19%29.80 "Hg10 mi
6:55 PM85 °FSunny.12 mph19%29.80 "Hg10 mi
6:35 PM85 °FSunny.8 mph20%29.80 "Hg10 mi
6:15 PM85 °FSunny.14 mph20%29.80 "Hg10 mi
5:55 PM85 °FSunny.10 mph20%29.80 "Hg10 mi
5:35 PM85 °FSunny.10 mph20%29.80 "Hg10 mi
5:15 PM85 °FSunny.9 mph20%29.80 "Hg10 mi
4:55 PM85 °FSunny.9 mph20%29.81 "Hg10 mi
4:15 PM85 °FSunny.14 mph21%29.82 "Hg10 mi
3:55 PM85 °FSunny.10 mph20%29.82 "Hg10 mi
3:15 PM84 °FSunny.5 mph23%29.83 "Hg10 mi
2:55 PM83 °FSunny.13 mph23%29.85 "Hg10 mi
2:35 PM83 °FSunny.12 mph25%29.85 "Hg10 mi
2:15 PM82 °FSunny.13 mph26%29.87 "Hg10 mi
1:55 PM82 °FSunny.10 mph27%29.87 "Hg10 mi
1:15 PM80 °FSunny.10 mph28%29.89 "Hg10 mi
12:55 PM80 °FSunny.13 mph29%29.90 "Hg10 mi
12:35 PM79 °FSunny.10 mph30%29.90 "HgN/A
12:15 PM78 °FSunny.10 mph30%29.90 "Hg10 mi
11:55 AM77 °FSunny.12 mph32%29.91 "Hg10 mi
11:35 AM76 °FSunny.14 mph34%29.92 "Hg10 mi
11:15 AM75 °FSunny.12 mph36%29.93 "Hg10 mi
10:55 AM74 °FSunny.12 mph40%29.93 "Hg10 mi
10:35 AM73 °FSunny.12 mph42%29.92 "Hg10 mi
10:15 AM71 °FSunny.17 mph45%29.92 "Hg10 mi
9:55 AM70 °FSunny.14 mph47%29.92 "Hg10 mi
9:35 AM69 °FSunny.12 mph50%29.92 "Hg10 mi
9:15 AM67 °FSunny.12 mph51%29.91 "Hg10 mi
8:55 AM65 °FSunny.12 mph56%29.91 "Hg10 mi
8:35 AM64 °FClear.10 mph61%29.91 "Hg10 mi
8:15 AM62 °FClear.9 mph65%29.91 "Hg10 mi
7:55 AM62 °FClear.10 mph65%29.91 "Hg10 mi
7:15 AM62 °FClear.8 mph72%29.90 "Hg10 mi
6:55 AM63 °FClear.10 mph72%29.90 "Hg10 mi
6:35 AM63 °FClear.9 mph73%29.90 "Hg10 mi
6:15 AM64 °FClear.12 mph75%29.90 "Hg10 mi
5:55 AM64 °FClear.13 mph76%29.90 "Hg10 mi
5:35 AM64 °FClear.12 mph75%29.90 "Hg10 mi
5:15 AM65 °FClear.13 mph74%29.90 "Hg10 mi
4:55 AM65 °FPassing clouds.12 mph73%29.91 "Hg10 mi
4:35 AM66 °FOvercast.14 mph70%29.91 "Hg10 mi
4:15 AM66 °FOvercast.13 mph67%29.91 "Hg10 mi
3:55 AM65 °FPassing clouds.10 mph63%29.91 "Hg10 mi
3:35 AM66 °FPassing clouds.12 mph62%29.91 "Hg10 mi
3:15 AM66 °FPassing clouds.12 mph61%29.91 "Hg10 mi
2:55 AM67 °FClear.9 mph58%29.91 "Hg10 mi
2:35 AM68 °FClear.10 mph54%29.92 "Hg10 mi
2:15 AM68 °FPassing clouds.10 mph52%29.93 "Hg10 mi
1:55 AM68 °FOvercast.8 mph51%29.94 "Hg10 mi
1:15 AM69 °FPassing clouds.7 mph47%29.94 "Hg10 mi
Weather by CustomWeather, © 2015

See weather overviewHow to use our weather pages